GFSMA_925_thetae_132.txt.gz
Theta_e
348 348 348 346 347 347 348 349 349 349 347 344 344 344 340 339 338 338 339 334 335 337 338 339 340 341 341 341 342 343 346 346 346 345 342 341 341 341 341 340 338 339 340
349 347 347 346 348 349 350 350 351 348 344 341 344 342 341 341 340 340 341 340 337 337 338 339 340 342 343 344 344 346 348 348 346 344 342 342 340 338 337 336 336 337 339
349 348 348 347 348 350 352 350 349 347 343 341 344 344 343 342 341 341 342 342 343 341 340 342 343 344 345 345 345 346 349 347 344 343 342 342 342 342 341 341 341 342 342
350 351 346 347 350 351 350 350 346 344 344 341 342 342 343 344 346 346 344 344 345 345 346 345 344 344 344 345 345 345 347 344 344 343 343 344 346 346 345 342 342 340 337
351 349 348 349 353 351 351 348 346 345 344 341 341 343 344 344 345 343 346 348 347 347 348 349 347 347 345 343 345 348 344 344 344 343 344 346 347 347 345 343 342 338 337
351 351 348 349 352 351 352 350 349 347 345 343 340 342 344 345 346 345 346 347 348 349 349 352 353 353 351 344 348 345 346 346 344 345 348 349 348 346 345 344 344 342 339
347 352 348 349 352 351 356 354 351 352 348 350 344 343 345 346 346 347 348 348 349 349 350 351 353 356 355 347 349 347 345 344 348 349 349 346 344 343 343 343 343 344 341
348 350 351 348 352 351 356 356 356 349 350 351 347 344 344 345 344 345 348 349 351 350 349 350 352 358 355 354 349 348 347 347 347 348 346 344 344 344 342 343 343 343 342
350 352 352 350 352 351 352 355 355 354 349 352 355 351 346 345 346 348 350 349 351 349 349 349 349 353 354 352 351 351 347 346 348 346 348 348 347 346 345 347 347 344 342
352 351 352 350 351 350 354 354 352 356 355 350 350 350 353 352 348 348 348 349 348 347 348 348 347 350 351 350 350 352 347 346 349 349 348 347 346 346 347 350 350 344 340
351 351 353 351 350 348 355 356 354 356 354 351 351 350 352 350 352 348 347 347 348 348 348 347 349 350 351 350 348 352 349 350 350 349 347 346 344 346 348 349 351 344 342
349 350 352 353 351 348 353 354 354 356 358 356 353 353 350 350 349 348 349 349 349 345 348 350 352 351 349 348 352 352 349 348 347 346 345 345 346 347 346 350 344 341 344
347 350 352 352 351 351 352 355 357 353 351 356 358 352 352 352 351 350 348 349 349 347 350 349 350 350 349 349 353 353 353 346 345 346 347 348 346 347 348 345 342 341 343
348 350 353 352 353 353 350 354 353 351 352 353 356 357 353 352 351 351 350 349 350 348 349 351 348 349 350 352 351 353 352 347 346 347 348 345 345 345 344 344 344 344 344
350 352 352 352 353 354 352 352 350 353 353 354 352 355 353 352 350 351 351 351 351 351 347 352 345 353 351 350 350 354 344 344 343 344 346 346 345 345 346 346 347 347 347
351 352 352 352 352 353 354 353 351 354 354 351 350 351 354 350 351 349 348 347 347 346 345 339 344 350 353 348 351 353 345 339 334 338 340 341 342 342 343 345 346 347 348
351 351 351 351 352 353 354 354 353 351 354 353 353 352 354 353 349 347 347 347 347 347 345 344 349 351 352 353 352 352 349 335 328 331 334 336 338 339 340 342 344 345 345
349 351 351 350 351 352 353 354 353 352 352 353 353 353 352 351 353 352 349 349 349 350 348 346 350 348 351 351 353 351 346 337 327 325 326 326 328 331 334 334 332 331 332
353 353 352 353 352 352 352 353 353 353 352 352 351 352 352 351 352 351 351 350 349 350 352 352 349 350 350 350 353 349 344 343 334 330 328 324 324 325 326 326 325 325 325
353 354 354 354 355 353 354 354 354 354 352 352 352 352 352 352 352 353 352 352 350 351 350 350 350 349 351 351 351 350 342 341 340 335 333 328 325 318 314 317 319 321 318
354 355 354 354 353 353 352 353 354 354 353 352 352 353 352 352 352 351 351 350 351 351 351 349 350 350 352 348 349 350 347 337 334 335 337 333 327 319 312 308 305 305 308
354 355 354 353 353 352 351 350 350 352 353 352 352 352 353 351 350 348 347 348 348 350 346 346 346 349 351 349 349 349 348 349 341 328 333 332 325 320 312 307 303 303 302
353 353 353 353 352 353 352 349 348 350 352 353 352 351 353 350 350 347 346 346 346 346 346 349 345 348 347 346 348 343 342 338 332 323 330 324 327 321 316 307 301 301 301
352 352 352 353 353 353 353 350 348 348 351 353 353 353 352 350 347 346 343 340 336 338 340 342 344 339 338 336 341 339 340 332 325 319 324 331 315 325 321 314 310 303 301
352 352 351 351 350 350 346 343 344 345 349 351 350 349 347 346 344 337 338 332 329 328 330 332 330 326 325 325 329 333 336 335 332 321 313 321 314 315 323 320 312 307 307
348 343 341 340 340 343 340 340 341 344 346 344 338 336 338 337 337 334 334 331 324 321 321 323 322 320 320 318 318 321 321 322 321 318 310 318 312 313 318 320 314 309 308

GFSMA_925_thetae_135.txt.gz
Theta_e
345 345 345 347 345 343 343 345 346 347 345 344 345 340 338 338 339 339 339 338 339 340 341 341 342 342 343 344 344 347 349 348 346 345 342 340 339 338 337 337 337 337 339
349 345 345 345 345 345 346 347 351 346 342 343 343 340 341 341 341 342 342 340 340 341 342 343 344 344 344 344 345 346 349 347 344 343 342 343 344 344 343 342 341 341 342
350 346 346 346 346 347 349 348 349 345 342 341 343 343 341 341 344 345 344 344 344 343 344 344 344 344 344 344 345 346 345 344 344 342 343 344 346 347 346 344 341 339 338
350 349 345 346 346 347 346 347 346 344 342 341 342 342 342 343 345 345 343 345 345 346 347 348 348 346 347 344 345 348 345 344 343 343 344 345 346 347 346 345 343 341 338
352 353 346 347 352 345 346 345 345 344 342 340 342 342 342 343 345 344 345 347 347 349 350 351 352 353 353 344 348 345 346 345 343 345 348 349 348 347 346 345 343 344 340
350 353 347 349 355 350 346 351 345 346 342 341 339 342 343 343 344 344 345 346 348 350 349 352 355 355 355 344 348 344 342 343 347 349 347 345 344 345 345 344 344 344 342
352 354 348 349 352 350 355 351 350 350 345 345 344 342 344 344 344 344 345 345 348 348 349 352 353 357 356 354 349 346 346 347 347 348 347 345 344 344 344 344 344 344 342
350 349 353 349 351 352 356 355 355 351 347 345 350 342 344 343 342 343 345 346 349 349 349 351 351 356 354 355 351 351 349 346 348 347 348 348 347 347 348 347 346 345 341
350 352 352 353 352 351 352 355 355 355 353 346 350 351 352 355 345 345 347 346 349 348 349 348 349 352 353 353 353 354 351 346 349 349 348 347 346 344 346 349 349 344 343
350 350 351 351 352 352 353 354 352 355 351 352 346 344 350 351 352 354 349 348 348 348 349 348 348 351 352 350 353 349 348 349 349 348 346 344 344 346 348 349 348 342 345
351 350 352 352 351 348 354 356 355 356 354 352 348 348 350 346 347 347 348 349 346 349 348 347 349 349 348 353 352 352 350 348 347 345 345 346 346 346 347 350 344 342 345
349 351 352 353 353 348 353 353 355 355 360 358 355 350 348 348 349 347 348 348 348 347 348 349 350 349 348 352 352 350 353 346 345 346 347 345 347 348 347 344 341 343 344
346 350 352 353 352 353 352 353 356 355 354 357 358 355 350 350 350 349 348 347 347 348 348 347 349 349 348 345 352 353 350 345 345 347 346 344 344 344 343 343 343 343 343
345 352 355 351 352 354 353 353 354 352 351 353 356 358 354 350 350 350 350 349 350 348 343 341 350 346 347 350 349 353 347 345 344 345 345 345 345 346 346 346 346 346 347
350 352 352 352 352 353 354 353 352 351 351 355 352 355 355 351 349 348 349 349 348 350 348 352 346 351 349 351 353 349 348 344 342 341 341 342 343 344 345 346 347 347 347
350 353 352 354 354 353 354 354 351 350 352 350 348 349 353 352 350 349 348 347 347 346 346 341 339 351 352 344 352 349 345 340 338 336 337 338 340 341 342 342 341 339 339
353 352 353 354 353 353 354 354 353 353 353 354 353 353 354 353 351 349 348 345 344 344 344 344 346 356 354 352 353 351 342 333 330 329 330 331 332 333 333 332 331 329 329
353 353 354 354 354 353 353 355 355 351 352 353 353 352 353 350 352 352 347 345 345 348 351 352 347 350 353 354 353 351 345 330 330 328 327 326 326 327 327 327 327 326 326
355 352 354 355 354 354 354 354 355 355 354 353 352 352 353 352 352 350 352 353 351 352 350 351 351 349 350 351 353 352 345 339 330 330 330 330 325 318 321 320 318 319 320
355 355 354 355 355 355 354 354 355 355 354 353 352 352 351 351 352 353 354 353 353 352 352 352 351 351 349 351 350 351 347 345 336 332 332 330 323 318 312 306 305 305 306
354 355 355 355 354 354 354 354 355 355 353 355 354 353 353 352 352 352 353 352 352 352 350 350 352 349 350 348 349 348 349 344 343 341 336 333 327 319 313 307 303 303 302
354 355 354 354 354 354 351 351 352 354 355 353 354 354 354 352 352 351 351 348 350 353 353 349 348 349 348 347 349 350 351 346 341 335 337 335 329 321 312 305 302 301 301
354 352 353 354 354 354 352 350 350 350 351 352 354 352 353 353 353 353 349 347 347 347 348 351 352 349 349 349 347 345 345 346 341 327 329 330 328 325 315 313 310 303 301
354 351 354 353 351 352 353 352 351 350 352 352 352 353 354 354 352 352 348 348 338 340 343 345 349 348 346 343 346 346 345 337 329 322 321 331 322 323 323 318 313 308 307
352 353 347 351 352 352 352 352 349 347 349 351 351 352 352 352 351 348 348 342 331 330 336 340 339 336 331 333 334 336 339 338 338 326 316 323 319 316 323 320 315 310 309
353 351 351 350 349 348 347 345 342 343 348 350 349 347 347 347 347 346 343 336 329 324 322 322 322 322 322 320 323 324 322 325 325 324 313 322 315 315 318 324 317 312 310

GFSMA_925_thetae_138.txt.gz
Theta_e
346 343 344 344 345 342 346 345 348 345 345 345 341 339 338 339 338 337 339 340 341 342 343 343 343 344 344 344 345 346 348 345 342 342 342 343 344 345 344 342 341 341 341
347 342 345 342 344 349 348 348 348 347 345 344 342 340 340 340 342 341 341 341 342 343 344 343 343 343 344 344 345 346 345 344 342 342 343 344 345 346 346 345 342 341 339
350 352 347 347 348 345 344 342 347 345 341 343 342 342 341 343 344 344 344 343 343 343 344 347 348 345 345 344 345 347 345 344 342 343 344 346 346 346 346 346 344 343 340
349 347 340 345 347 340 346 348 347 346 340 342 344 342 341 343 344 344 344 345 345 347 346 349 351 352 352 344 348 345 344 342 343 347 348 348 347 347 347 346 344 343 342
350 350 352 350 341 351 345 349 346 344 340 342 343 342 343 344 345 345 345 346 347 349 350 351 352 353 352 345 346 339 341 345 348 348 346 344 344 344 345 344 344 343 342
349 352 351 349 351 352 349 346 348 347 342 341 343 343 343 343 344 345 345 345 349 348 351 352 354 356 352 349 343 343 345 346 346 347 348 347 347 347 345 344 345 344 341
351 349 353 350 336 344 349 349 346 346 348 344 347 342 344 345 344 344 344 345 348 348 348 351 356 356 355 349 348 349 348 346 347 348 347 347 346 345 345 349 347 344 343
351 348 351 351 336 339 350 353 356 352 353 344 347 354 354 347 344 343 344 345 349 347 350 351 353 348 354 350 349 351 350 346 348 349 347 346 344 346 347 349 348 342 345
351 351 352 353 345 349 350 356 356 351 342 350 346 350 359 350 345 342 334 342 348 349 349 348 349 351 355 354 351 348 347 348 348 346 344 344 344 346 347 350 345 343 345
349 351 351 352 349 337 341 351 355 344 334 352 351 345 344 338 345 337 338 333 343 344 349 348 350 351 352 353 347 350 349 346 344 344 344 346 346 346 350 346 342 345 344
349 350 350 352 352 349 341 352 355 354 354 354 357 351 348 349 347 339 345 338 340 342 348 349 350 351 352 352 346 349 351 344 344 345 345 346 348 349 346 343 343 344 344
349 351 352 352 353 351 350 352 356 349 355 352 350 357 351 351 351 352 355 348 345 348 342 344 346 351 350 352 349 349 349 344 345 346 345 344 344 343 342 342 343 343 344
348 349 350 353 353 351 349 353 355 353 354 355 359 356 357 350 350 350 350 354 353 345 338 337 337 348 352 352 351 350 348 344 345 346 345 345 345 346 346 346 346 347 346
348 351 349 352 350 354 354 352 353 355 353 351 354 357 355 354 351 349 351 349 356 349 343 344 346 345 352 350 342 346 346 343 343 342 342 343 344 345 346 346 346 346 346
351 353 352 352 352 349 353 353 353 351 352 354 354 353 353 347 352 352 349 349 352 356 354 348 348 351 350 350 350 349 345 340 340 339 340 341 342 342 341 339 337 335 333
351 349 351 353 349 352 352 353 351 352 351 350 350 350 352 353 351 352 352 349 347 347 354 344 352 354 353 353 351 349 342 340 335 334 333 333 334 333 332 330 329 329 329
353 354 351 347 353 353 353 353 352 352 352 353 352 351 350 354 352 348 348 347 349 349 355 353 350 354 351 353 348 347 342 339 335 329 329 329 328 328 327 326 324 323 324
351 354 352 352 352 354 351 353 354 353 352 352 351 354 353 353 353 351 352 350 349 344 349 351 346 351 352 353 352 348 332 336 334 329 331 330 327 325 322 316 313 314 315
351 353 354 354 353 354 353 353 353 353 354 353 352 352 351 353 353 353 350 350 352 353 351 352 353 349 350 351 349 350 335 334 331 330 329 326 322 316 309 306 304 304 305
350 351 353 355 355 355 353 353 354 353 352 351 352 353 352 351 350 351 350 352 353 352 352 352 352 351 350 348 348 346 338 335 334 327 328 322 320 320 314 306 303 302 302
352 353 352 352 353 353 353 354 353 354 354 353 352 353 353 353 352 352 351 352 351 350 352 351 350 350 348 349 350 348 347 345 337 331 329 325 319 320 315 314 304 301 301
353 353 353 354 353 351 353 352 354 351 351 351 352 351 352 352 352 351 352 351 351 349 352 353 351 351 349 349 348 348 347 345 343 341 337 333 323 320 319 314 311 305 302
352 353 353 351 352 354 354 353 351 352 352 352 352 352 352 353 352 352 352 350 349 348 347 348 351 350 349 350 348 346 346 345 344 332 329 333 326 322 320 319 315 308 307
354 353 349 348 349 351 351 351 352 351 350 349 350 351 353 353 353 352 351 347 345 343 342 344 345 347 347 348 346 346 345 336 329 323 320 331 323 322 318 320 315 310 309
355 355 354 350 350 350 351 350 351 352 350 349 349 350 350 352 352 352 350 345 338 333 332 339 340 338 338 338 340 339 339 337 335 320 315 324 318 323 324 320 315 311 310
351 354 353 352 350 349 350 349 346 347 345 347 350 350 350 349 349 345 345 343 335 329 323 323 322 321 321 322 325 324 324 320 321 319 312 321 314 314 319 321 314 311 311

GFSMA_925_thetae_141.txt.gz
Theta_e
344 344 345 348 347 347 347 345 346 345 344 344 343 343 340 338 335 337 340 342 342 343 343 343 343 343 343 344 344 347 344 343 342 343 343 344 345 345 345 344 342 341 339
345 347 346 343 347 346 348 346 346 345 345 343 340 338 340 338 338 340 341 341 342 343 343 343 344 343 343 343 345 345 344 342 342 344 345 346 346 346 345 345 344 343 341
345 344 347 347 349 346 348 345 346 348 344 342 342 340 339 343 344 341 340 341 343 343 343 346 347 348 349 344 347 343 344 343 346 348 347 346 346 347 347 346 345 343 342
349 346 344 345 347 348 349 345 346 347 342 341 341 342 341 341 342 344 344 345 346 345 346 347 348 351 350 347 341 340 343 347 346 346 345 345 344 344 345 345 344 343 341
349 348 347 349 348 348 350 348 347 348 342 342 343 342 341 343 339 343 345 344 346 347 349 351 350 352 346 347 344 346 346 346 347 346 347 346 346 346 345 344 344 344 343
348 346 347 347 346 342 347 348 352 346 342 344 344 343 343 343 343 345 345 345 346 348 350 352 355 351 344 339 344 348 346 345 347 347 347 346 345 344 346 347 346 342 344
350 344 345 345 342 345 344 347 350 355 348 345 347 343 344 344 342 343 343 344 347 348 352 351 356 350 349 336 344 350 348 347 348 347 345 343 344 345 347 348 344 345 344
350 350 351 344 333 344 346 350 354 354 353 350 346 352 345 346 343 343 338 335 342 347 350 351 354 351 352 351 351 349 347 347 346 343 343 344 345 346 349 347 342 345 344
350 351 349 347 340 338 347 348 351 351 348 350 354 348 346 338 338 342 336 338 343 344 348 347 353 351 353 350 350 348 346 344 343 343 346 347 347 349 347 342 344 344 344
350 351 351 348 342 339 343 350 350 340 340 351 352 350 345 337 336 335 337 338 336 339 345 343 350 351 350 348 349 349 344 344 344 345 347 351 353 348 345 344 344 343 343
347 350 350 348 349 337 342 334 351 353 350 349 353 350 345 340 346 340 341 343 338 337 337 340 348 352 351 350 348 347 343 342 344 345 344 343 342 342 342 343 343 344 343
345 350 351 351 351 350 350 351 354 353 350 336 353 354 355 352 343 337 344 341 343 343 343 338 345 350 350 350 347 347 345 343 345 346 345 345 345 346 346 346 347 346 345
347 349 351 351 351 352 349 350 351 353 355 353 352 353 352 355 354 351 350 350 345 345 341 338 339 350 353 349 344 347 343 343 343 343 344 344 345 346 346 345 344 344 344
349 348 347 352 351 352 352 350 353 352 353 353 352 356 352 346 350 353 352 348 346 346 344 345 344 345 352 347 344 345 344 342 341 341 342 342 342 340 338 335 333 332 335
350 347 351 350 351 350 353 352 349 350 351 351 354 352 351 351 355 351 351 350 351 348 346 348 350 345 352 347 346 346 343 340 338 337 336 336 334 332 330 329 328 329 329
350 352 349 350 351 351 350 352 351 350 352 351 351 351 351 348 351 352 347 347 347 349 344 353 349 351 350 347 346 347 341 336 333 331 331 330 329 328 326 323 323 324 325
352 351 351 350 350 351 352 351 353 351 353 351 352 348 351 350 352 350 348 350 352 350 349 351 353 352 351 349 347 342 336 336 332 332 332 329 327 326 318 312 311 312 314
349 353 352 350 346 350 351 351 353 351 352 352 349 349 350 352 353 351 349 354 350 351 351 350 350 351 351 349 348 342 334 334 333 330 330 326 321 316 309 307 305 304 305
350 351 353 349 350 351 352 353 354 353 352 352 351 352 353 351 350 351 350 350 352 351 350 351 350 350 350 347 343 333 332 333 329 328 326 325 319 313 312 307 304 303 302
349 350 349 353 354 353 352 352 352 352 352 351 352 351 349 352 351 353 350 350 348 351 352 351 351 350 349 348 346 337 330 332 327 327 321 322 320 314 314 310 304 302 301
351 351 349 351 354 354 353 352 353 353 353 353 352 351 352 352 353 352 352 351 350 351 349 351 351 349 348 349 349 344 337 333 337 326 322 321 320 315 312 309 305 302 301
351 352 351 352 351 351 352 351 352 353 352 352 353 351 350 351 349 349 351 351 351 352 350 349 349 349 348 347 347 348 347 341 335 327 326 320 318 315 314 311 308 307 306
353 353 352 352 352 354 354 353 353 351 354 351 352 352 351 350 352 353 352 351 349 349 348 347 348 349 350 349 347 347 345 345 342 338 329 322 317 316 315 313 309 309 308
350 350 351 351 351 350 350 351 351 351 351 350 351 351 351 351 352 353 353 349 347 344 342 342 343 344 346 346 346 345 344 343 338 330 330 327 316 316 315 312 310 310 309
350 350 349 349 349 349 350 349 350 349 349 350 349 348 347 349 350 352 351 350 341 334 333 339 338 334 335 337 342 344 338 328 327 318 321 322 323 315 315 313 310 309 309
348 350 350 351 351 350 349 349 348 348 346 345 347 348 348 348 348 347 347 345 336 325 323 321 318 319 321 320 324 327 323 331 320 316 315 316 316 319 320 315 310 309 310

GFSMA_925_thetae_144.txt.gz
Theta_e
340 339 340 345 345 345 346 347 346 346 347 344 343 345 346 337 336 336 340 342 342 342 342 341 341 342 343 343 345 345 342 341 342 343 344 344 345 345 345 345 344 343 342
344 346 345 345 343 346 345 347 346 345 344 341 339 340 343 337 335 339 341 341 342 342 342 341 342 342 343 343 346 344 343 343 346 347 347 347 347 347 346 345 344 343 342
348 347 347 346 348 346 348 348 346 347 345 341 341 341 340 339 342 339 340 340 341 342 342 342 343 347 348 346 344 343 345 346 346 346 344 344 344 344 346 345 345 344 341
348 346 343 344 347 349 349 347 348 348 343 340 341 341 341 341 342 344 343 342 343 343 346 347 341 350 345 343 342 345 346 346 346 346 346 346 346 345 344 345 344 342 343
348 343 346 347 347 348 348 346 348 349 345 341 341 341 341 340 342 343 344 345 345 345 347 349 347 351 343 342 344 346 345 347 347 347 346 345 344 345 346 345 344 344 343
346 346 345 345 346 343 345 345 349 347 346 341 342 342 342 342 343 344 342 344 346 347 348 349 348 350 341 344 345 349 348 346 347 346 344 343 343 346 347 346 343 344 344
345 343 344 344 342 338 344 348 353 354 352 349 343 344 343 344 343 340 338 340 345 348 349 351 349 345 344 342 336 350 346 346 344 343 343 344 344 348 348 343 344 344 344
345 347 348 344 339 344 345 349 350 351 348 352 350 351 344 343 340 337 337 338 342 345 347 342 349 349 348 345 350 347 346 344 343 344 347 346 349 349 344 344 344 344 344
349 350 348 345 337 343 347 349 349 347 345 351 352 348 344 342 336 338 336 334 337 344 346 349 351 347 338 349 348 345 344 343 343 346 349 349 347 344 342 344 343 343 344
349 350 350 347 340 343 347 349 348 345 348 349 352 350 341 337 336 333 337 339 338 335 338 342 350 349 349 347 348 344 343 343 344 344 346 352 351 347 345 344 345 345 344
350 349 350 346 344 339 343 341 350 349 347 347 350 350 340 341 336 337 333 340 343 340 336 341 351 351 347 347 345 343 343 344 345 344 343 343 345 346 347 348 347 346 345
349 347 350 349 349 345 346 338 352 352 351 338 346 352 353 349 345 341 336 341 343 345 343 341 346 351 350 347 345 343 343 344 344 345 345 345 345 346 346 345 345 344 345
348 347 350 351 349 348 349 350 350 353 351 351 350 350 352 352 351 347 348 345 342 345 344 338 338 350 351 347 344 342 342 342 342 343 344 344 343 341 339 337 336 337 339
347 346 350 351 350 351 348 348 352 351 351 352 352 352 353 352 353 351 350 347 343 345 345 342 341 349 347 347 344 342 341 340 340 341 340 339 336 333 330 329 329 330 332
347 348 347 346 351 350 351 350 348 346 350 351 350 353 352 350 350 352 349 348 349 345 342 345 347 342 347 343 343 341 339 337 336 334 333 332 330 329 326 324 325 327 328
350 350 346 348 348 350 349 352 352 349 351 350 350 352 351 350 349 351 346 345 346 348 341 350 348 344 349 345 343 340 337 333 331 332 332 330 328 324 318 316 316 317 318
350 349 350 351 349 349 350 352 351 352 349 351 351 352 349 349 349 352 351 350 351 350 347 352 351 350 348 346 342 336 333 331 331 331 328 324 323 312 307 306 306 306 308
350 351 350 350 350 351 351 352 352 351 351 350 350 348 350 348 352 352 351 349 350 349 349 347 350 350 350 346 341 339 330 328 330 329 326 318 313 312 310 305 304 303 303
349 352 351 351 350 350 349 350 351 350 352 351 352 351 349 350 352 351 350 351 350 350 349 349 349 349 349 344 337 331 328 326 326 325 325 318 315 312 309 305 303 302 302
349 347 351 350 350 348 350 350 352 353 352 353 351 351 351 351 349 350 350 352 350 349 349 351 350 348 348 343 339 331 325 324 323 320 322 316 311 311 309 306 302 302 302
348 349 349 350 350 352 352 352 351 352 352 352 351 353 351 351 352 351 349 349 350 349 349 349 349 349 347 345 343 338 328 328 321 322 319 313 312 311 309 304 303 302 302
350 349 350 351 349 352 353 353 352 352 352 352 352 351 352 352 351 351 350 350 350 351 350 349 349 348 347 346 348 346 338 326 328 326 321 315 311 311 309 307 307 306 303
350 350 351 351 350 351 350 351 351 351 351 351 352 351 350 350 351 351 351 351 351 349 348 348 348 348 348 349 347 347 343 338 337 335 322 316 312 311 309 308 308 308 308
350 350 349 351 351 352 351 351 351 352 352 351 352 352 352 350 349 350 350 350 349 346 344 343 343 344 344 346 347 346 345 345 340 334 324 320 316 311 309 308 308 308 309
349 350 351 352 351 350 350 349 350 349 349 349 350 350 349 348 347 349 350 349 343 340 337 339 339 338 338 340 341 343 340 338 323 320 325 323 313 311 310 308 308 308 309
349 350 349 349 349 350 349 349 348 348 347 347 346 347 347 347 347 347 348 347 339 333 327 323 323 323 325 325 329 335 331 328 318 312 317 317 316 317 313 310 308 308 308

GFSMA_925_thetae_147.txt.gz
Theta_e
341 338 338 340 343 345 346 346 346 345 345 344 343 341 344 340 335 335 338 340 340 341 341 341 341 342 343 343 346 343 342 342 344 345 346 346 346 346 345 345 345 344 344
342 345 344 344 344 346 346 346 346 346 344 341 338 340 340 338 335 337 338 340 340 340 340 340 340 342 346 344 344 344 344 346 347 346 344 343 344 345 346 347 345 343 342
347 346 346 345 347 347 348 346 344 347 347 342 339 339 340 337 339 337 338 339 339 340 343 343 342 341 348 345 343 344 346 345 346 346 346 345 345 345 345 346 344 343 343
348 346 344 345 346 347 346 345 345 346 344 341 340 340 340 337 339 342 341 343 344 344 345 346 347 342 347 345 344 345 345 345 346 346 346 345 345 344 344 344 344 343 343
346 343 345 346 346 347 346 346 348 347 341 340 339 341 340 341 342 342 343 344 344 344 346 348 349 349 344 345 346 348 347 345 346 346 344 343 343 345 345 345 342 344 343
346 344 345 345 345 343 344 346 350 346 344 343 340 342 342 341 343 342 342 345 345 346 347 348 346 348 343 342 345 348 347 345 345 343 343 343 344 347 346 343 344 344 343
344 345 343 344 342 342 344 345 352 349 346 348 344 343 342 341 341 338 338 343 345 347 348 346 346 344 340 343 340 348 345 344 342 343 345 344 347 348 344 344 344 344 344
344 342 344 343 341 340 344 347 349 349 350 349 348 345 340 341 341 337 337 340 343 346 348 346 347 348 347 348 349 346 344 343 347 348 348 349 348 344 343 344 343 344 344
346 346 347 342 336 344 346 349 347 347 348 352 349 346 341 342 335 338 337 336 338 345 347 350 349 344 341 347 347 345 343 343 352 353 348 346 344 343 343 343 345 345 346
349 346 346 346 337 343 348 348 344 345 348 349 348 344 340 337 336 334 335 338 342 336 337 349 349 348 347 347 348 343 343 343 343 346 347 346 345 346 348 348 346 345 345
348 349 347 347 341 341 347 349 348 345 348 348 350 344 341 341 337 335 333 336 343 341 340 344 349 350 348 348 345 344 343 343 343 343 344 345 346 349 347 347 346 346 344
347 349 349 347 344 342 340 339 349 350 347 340 349 353 350 348 345 340 334 339 342 343 344 342 349 349 348 347 345 343 342 342 343 343 344 345 345 344 342 344 344 344 343
346 348 348 349 349 346 348 345 350 349 348 351 350 350 352 350 351 346 347 344 342 345 344 341 339 341 345 349 342 343 341 341 341 342 342 341 339 336 333 331 331 333 338
346 347 346 348 350 349 348 348 348 348 351 351 350 351 352 351 351 350 349 347 342 344 345 343 340 348 350 348 342 342 340 340 340 338 336 334 331 329 328 326 327 328 330
346 347 345 348 349 350 350 348 347 350 350 351 350 351 351 350 350 351 349 348 346 343 340 344 342 346 347 347 342 340 339 337 335 333 330 330 328 325 321 319 320 322 324
346 347 347 348 346 349 349 350 350 348 348 349 349 349 352 350 349 351 348 345 347 347 341 347 345 346 342 345 342 339 337 334 332 330 329 327 325 316 310 309 310 311 313
347 347 348 348 347 346 348 349 350 350 351 350 350 350 351 350 348 350 351 350 350 348 345 348 350 348 344 345 340 339 334 332 331 330 325 323 313 309 308 306 305 306 306
347 346 348 348 348 348 348 349 350 350 350 351 350 349 349 350 348 350 352 350 349 349 348 345 349 349 348 344 341 337 332 329 329 327 321 313 312 311 307 304 303 303 303
348 348 348 348 348 348 349 348 348 350 351 351 351 350 351 349 349 349 351 350 350 350 348 348 347 349 347 346 339 332 329 328 328 325 321 313 315 310 308 304 302 302 303
348 348 349 349 349 349 349 349 349 350 350 350 352 352 350 350 350 350 348 349 349 351 349 349 348 348 348 345 338 333 328 327 326 321 317 316 311 310 309 304 302 303 305
348 347 347 347 350 349 349 349 349 350 350 351 351 351 351 352 351 351 351 350 349 349 349 348 349 348 347 342 336 337 332 329 324 321 321 311 310 313 307 304 302 303 306
347 347 347 348 349 350 349 349 351 352 351 352 352 349 351 351 351 351 350 350 349 349 349 348 348 347 347 347 344 341 334 325 320 320 320 315 312 309 308 307 304 303 306
348 348 348 348 349 349 349 349 349 350 351 351 350 350 351 350 350 350 350 350 350 350 349 349 348 348 348 346 346 345 341 335 332 332 321 317 312 309 307 307 307 305 303
347 348 348 349 349 348 350 350 350 351 352 351 351 351 352 350 350 348 348 348 348 348 348 346 343 343 343 343 344 344 343 340 337 336 327 317 314 307 306 308 308 308 308
348 349 347 347 348 349 350 350 350 351 350 350 349 349 350 350 350 349 349 348 348 346 344 342 341 339 338 339 338 338 339 337 325 321 319 320 313 308 306 307 307 308 308
347 347 347 348 349 349 349 350 350 349 349 348 348 348 348 348 348 347 347 347 346 342 336 331 329 324 321 324 327 331 335 330 318 313 317 319 313 310 309 306 307 309 307

GFSMA_925_thetae_150.txt.gz
Theta_e
341 339 339 341 344 344 345 345 345 344 344 343 342 340 342 341 335 334 337 340 340 339 340 340 340 343 345 345 345 343 342 344 346 346 345 345 344 345 346 346 345 345 344
342 343 344 343 345 345 345 345 345 345 344 341 338 339 340 339 335 336 337 339 340 340 341 341 341 340 347 345 345 344 345 345 345 345 345 345 345 344 344 346 346 344 342
345 346 346 344 347 346 347 345 345 346 345 341 339 339 340 339 337 337 338 339 341 342 342 344 346 341 347 345 344 345 345 345 345 345 346 346 345 345 344 345 345 343 343
347 345 344 345 345 346 346 345 344 346 344 341 339 339 340 339 340 342 343 342 344 344 345 345 348 344 345 344 345 346 346 345 344 346 345 344 343 344 345 345 344 344 343
345 343 344 345 344 346 346 346 347 346 342 340 340 340 339 339 342 341 341 342 344 346 345 347 348 348 341 341 346 348 347 346 345 344 342 343 343 346 346 345 344 344 343
345 343 344 345 344 343 344 348 348 345 343 343 340 341 341 341 341 342 342 343 344 347 348 348 347 347 343 343 341 347 345 344 343 343 345 344 347 347 345 343 344 344 344
346 344 344 343 343 341 344 347 348 346 346 345 341 342 342 341 340 339 338 341 342 346 349 348 348 344 341 346 348 345 344 343 343 351 348 349 348 345 343 344 343 344 345
345 344 343 343 343 340 343 347 349 348 348 347 346 341 344 342 341 339 337 338 342 346 348 345 347 348 344 347 345 345 342 342 350 349 347 346 344 343 344 343 343 344 345
345 343 341 344 340 341 343 347 347 348 348 350 348 345 345 347 337 339 339 335 338 343 346 349 348 347 342 345 345 343 342 342 346 350 349 347 344 344 346 346 346 345 344
345 346 347 345 339 341 345 347 344 345 348 350 346 343 341 337 342 343 335 336 340 338 337 348 349 347 347 345 345 343 342 342 343 345 348 350 349 348 347 346 344 343 343
342 348 347 346 342 337 346 348 347 345 348 349 349 343 341 340 338 338 340 336 342 340 338 341 348 348 348 346 345 344 342 342 343 343 344 346 348 346 345 343 342 342 342
343 348 348 347 345 340 341 343 347 348 344 343 349 352 348 348 345 341 341 341 343 343 343 341 349 349 347 347 345 343 342 341 342 343 343 344 342 340 339 337 339 340 341
345 344 348 348 347 345 340 341 341 347 347 347 348 349 351 350 350 346 345 345 344 344 344 342 340 343 346 348 346 343 342 340 341 341 339 336 334 331 329 327 326 328 333
345 344 347 347 348 348 347 348 348 348 348 348 349 350 351 351 350 350 348 347 349 345 345 344 341 341 343 348 346 342 341 340 338 336 333 330 329 327 323 321 322 323 325
344 346 346 346 347 348 348 349 348 348 349 350 351 350 350 350 350 350 349 347 346 352 349 343 343 344 349 347 346 342 341 339 335 333 331 329 327 322 315 313 313 314 317
345 345 346 346 345 347 348 350 348 349 348 347 347 349 349 351 349 349 350 347 345 345 349 344 346 346 346 345 344 342 340 336 333 331 331 326 323 312 309 308 306 307 308
346 345 346 345 345 347 346 348 349 350 351 350 349 349 349 350 349 348 350 349 348 348 346 345 348 348 345 342 343 341 339 335 331 331 329 324 313 310 308 306 304 304 304
347 345 346 347 347 347 348 346 348 348 349 349 350 350 349 349 349 349 349 350 350 349 348 346 345 349 345 343 343 341 338 333 330 330 327 319 313 311 308 305 303 303 303
346 347 345 345 346 346 347 347 347 347 347 349 348 349 350 349 349 348 348 349 349 349 349 347 346 347 347 346 343 339 335 332 329 329 325 317 314 312 307 305 303 302 303
346 346 347 347 347 347 347 348 348 348 348 349 350 350 350 350 350 350 350 350 348 348 349 349 348 346 347 346 342 339 334 331 328 327 324 321 320 311 305 305 302 304 306
347 347 348 347 348 348 348 349 348 348 347 348 349 350 351 351 350 351 351 350 349 349 348 349 348 347 346 344 342 341 337 333 329 326 323 319 315 311 316 303 304 306 307
348 348 347 348 347 347 347 348 349 349 349 350 350 350 350 351 350 351 351 350 350 349 349 348 347 347 347 345 345 342 334 328 326 330 323 320 313 310 307 305 303 305 307
348 347 346 347 347 347 347 347 348 348 348 351 351 351 350 349 350 350 350 350 349 349 349 348 348 348 347 347 346 343 341 335 333 332 325 319 315 310 306 305 303 304 306
347 347 346 347 348 347 347 348 348 348 348 349 350 350 350 351 350 350 349 349 348 346 346 346 345 344 343 342 343 343 343 341 336 333 326 319 315 308 305 306 307 306 305
345 347 347 346 347 348 347 347 348 349 349 349 350 349 350 349 351 351 350 349 347 345 344 345 343 340 337 337 337 336 337 336 329 325 320 319 309 306 306 307 309 308 309
341 345 346 346 346 347 347 347 346 348 349 348 349 348 348 348 347 347 347 348 346 344 339 333 329 326 326 325 327 329 332 333 322 316 319 318 309 307 308 306 308 310 310